FIN17M LGSR-EFHK

Flight info

Callsign FIN17M
Flight time 3h 34m
Altitude 34000
Route IRBEG UY145 RIPLI UN137 NEVRA DCT AMISI/N0452F350 DCT KOROS/N0451F340 DCT ATFIR N133 USALI/N0451F360 DCT LOMOS DCT TIXIP DCT KENIN/N0445F350 DCT OGVET/N0453F370 DCT ETUBO DCT VABER DCT ROLAV DCT DOLAT/N0444F360 DCT ARSAM DCT INTOR
Aircraft A321/M-SDE3FGHIRWY/LB1

Departure

Time 2026-05-09 11:17
Airport Santorini International Airport (LGSR)

Arrival

Time 2026-05-09 14:51
Airport Helsinki Vantaa Airport (EFHK)
Time Latitude Longitude Altitude Speed Heading
2026-05-09 10:32 36.40266 25.47417 90 ft 0 kts 249°
2026-05-09 11:08 36.40269 25.47425 89 ft 4 kts 249°
2026-05-09 11:08 36.40276 25.47450 90 ft 4 kts 237°
2026-05-09 11:08 36.40292 25.47467 91 ft 4 kts 177°
2026-05-09 11:09 36.40315 25.47460 92 ft 2 kts 159°
2026-05-09 11:09 36.40317 25.47459 91 ft 0 kts 159°
2026-05-09 11:11 36.40310 25.47462 90 ft 2 kts 159°
2026-05-09 11:12 36.40293 25.47470 91 ft 3 kts 159°
2026-05-09 11:12 36.40268 25.47486 90 ft 4 kts 139°
2026-05-09 11:12 36.40266 25.47524 89 ft 5 kts 72°
2026-05-09 11:12 36.40286 25.47564 90 ft 5 kts 34°
2026-05-09 11:13 36.40324 25.47555 90 ft 7 kts 340°
2026-05-09 11:13 36.40387 25.47526 91 ft 12 kts 339°
2026-05-09 11:13 36.40464 25.47490 92 ft 12 kts 339°
2026-05-09 11:13 36.40543 25.47452 92 ft 12 kts 339°
2026-05-09 11:14 36.40624 25.47413 92 ft 13 kts 339°
2026-05-09 11:14 36.40708 25.47374 95 ft 13 kts 339°
2026-05-09 11:14 36.40794 25.47334 95 ft 13 kts 339°
2026-05-09 11:14 36.40883 25.47292 92 ft 14 kts 339°
2026-05-09 11:15 36.40968 25.47253 91 ft 10 kts 346°
2026-05-09 11:15 36.41011 25.47302 91 ft 9 kts 70°
2026-05-09 11:15 36.41030 25.47377 93 ft 7 kts 91°
2026-05-09 11:15 36.40993 25.47410 91 ft 7 kts 160°
2026-05-09 11:16 36.40930 25.47438 92 ft 20 kts 160°
2026-05-09 11:16 36.40557 25.47614 92 ft 93 kts 159°
2026-05-09 11:16 36.39754 25.47995 82 ft 152 kts 159°
2026-05-09 11:16 36.38727 25.48478 617 ft 157 kts 154°
2026-05-09 11:17 36.37746 25.49089 1290 ft 158 kts 153°
2026-05-09 11:17 36.36755 25.49794 1711 ft 172 kts 152°
2026-05-09 11:17 36.35657 25.50588 1900 ft 193 kts 152°
2026-05-09 11:17 36.34425 25.51472 2070 ft 214 kts 152°
2026-05-09 11:18 36.33118 25.52413 2539 ft 219 kts 152°
2026-05-09 11:18 36.31789 25.53371 3022 ft 223 kts 152°
2026-05-09 11:18 36.30430 25.54346 3616 ft 227 kts 152°
2026-05-09 11:18 36.29055 25.55323 4283 ft 229 kts 152°
2026-05-09 11:19 36.27791 25.56602 4770 ft 242 kts 126°
2026-05-09 11:19 36.27106 25.58521 5361 ft 249 kts 99°
2026-05-09 11:19 36.27213 25.60659 5965 ft 253 kts 70°
2026-05-09 11:19 36.28124 25.62481 6627 ft 255 kts 40°
2026-05-09 11:20 36.29649 25.63568 7215 ft 254 kts 11°
2026-05-09 11:20 36.31389 25.63625 7802 ft 251 kts 342°
2026-05-09 11:20 36.33001 25.62813 8419 ft 251 kts 331°
2026-05-09 11:20 36.34603 25.61872 8871 ft 264 kts 331°
2026-05-09 11:21 36.36331 25.60852 9150 ft 282 kts 331°
2026-05-09 11:21 36.38133 25.59800 9722 ft 289 kts 331°
2026-05-09 11:21 36.39965 25.58739 10335 ft 294 kts 331°
2026-05-09 11:21 36.41883 25.57622 10493 ft 316 kts 332°
2026-05-09 11:22 36.43943 25.56418 10622 ft 337 kts 332°
2026-05-09 11:22 36.46104 25.55162 11017 ft 347 kts 332°
2026-05-09 11:22 36.48303 25.53892 11645 ft 349 kts 332°
2026-05-09 11:22 36.50501 25.52624 12338 ft 349 kts 332°
2026-05-09 11:23 36.52712 25.51348 13046 ft 350 kts 332°
2026-05-09 11:23 36.54919 25.50072 13753 ft 350 kts 331°
2026-05-09 11:23 36.57212 25.48990 14357 ft 356 kts 340°
2026-05-09 11:23 36.59611 25.48196 14920 ft 358 kts 341°
2026-05-09 11:24 36.62035 25.47398 15488 ft 361 kts 341°
2026-05-09 11:24 36.63639 25.46868 15857 ft 363 kts 340°
2026-05-09 11:24 36.66893 25.45791 16602 ft 367 kts 340°
2026-05-09 11:24 36.69367 25.44971 17154 ft 369 kts 340°
2026-05-09 11:25 36.71859 25.44143 17702 ft 372 kts 340°
2026-05-09 11:25 36.74368 25.43308 18247 ft 375 kts 340°
2026-05-09 11:25 36.76899 25.42464 18719 ft 378 kts 340°
2026-05-09 11:25 36.78617 25.41891 19026 ft 380 kts 340°
2026-05-09 11:26 36.81181 25.41035 19488 ft 382 kts 340°
2026-05-09 11:26 36.83759 25.40173 19956 ft 385 kts 340°
2026-05-09 11:26 36.86358 25.39305 20430 ft 388 kts 339°
2026-05-09 11:26 36.88981 25.38430 20888 ft 391 kts 339°
2026-05-09 11:27 36.91618 25.37550 21327 ft 394 kts 339°
2026-05-09 11:27 36.94278 25.36661 21758 ft 397 kts 339°
2026-05-09 11:27 36.96952 25.35766 22189 ft 399 kts 339°
2026-05-09 11:27 36.99644 25.34863 22607 ft 402 kts 339°
2026-05-09 11:28 37.02356 25.33956 23023 ft 405 kts 339°
2026-05-09 11:28 37.05091 25.33042 23437 ft 407 kts 339°
2026-05-09 11:28 37.07837 25.32124 23797 ft 410 kts 339°
2026-05-09 11:28 37.10599 25.31197 24152 ft 411 kts 338°
2026-05-09 11:29 37.13369 25.30267 24509 ft 413 kts 338°
2026-05-09 11:29 37.16153 25.29331 24864 ft 415 kts 338°
2026-05-09 11:29 37.18945 25.28389 25216 ft 416 kts 338°
2026-05-09 11:29 37.21749 25.27445 25567 ft 418 kts 338°
2026-05-09 11:30 37.24570 25.26497 25920 ft 420 kts 338°
2026-05-09 11:30 37.27394 25.25545 26282 ft 421 kts 338°
2026-05-09 11:30 37.30227 25.24587 26622 ft 423 kts 338°
2026-05-09 11:30 37.33074 25.23620 26963 ft 424 kts 338°
2026-05-09 11:31 37.35927 25.22650 27295 ft 426 kts 338°
2026-05-09 11:31 37.38793 25.21677 27614 ft 427 kts 338°
2026-05-09 11:31 37.41667 25.20700 27933 ft 429 kts 337°
2026-05-09 11:31 37.44551 25.19722 28250 ft 430 kts 338°
2026-05-09 11:32 37.47450 25.18744 28566 ft 432 kts 337°
2026-05-09 11:32 37.50364 25.17761 28875 ft 434 kts 337°
2026-05-09 11:32 37.53282 25.16773 29185 ft 435 kts 337°
2026-05-09 11:32 37.56212 25.15776 29523 ft 436 kts 337°
2026-05-09 11:33 37.59143 25.14776 29842 ft 437 kts 337°
2026-05-09 11:33 37.62079 25.13775 30276 ft 436 kts 337°
2026-05-09 11:33 37.67905 25.11793 31047 ft 432 kts 336°
2026-05-09 11:34 37.70799 25.10809 31420 ft 430 kts 336°
2026-05-09 11:34 37.73677 25.09828 31780 ft 428 kts 336°
2026-05-09 11:34 37.76548 25.08846 32137 ft 426 kts 336°
2026-05-09 11:34 37.79405 25.07865 32512 ft 424 kts 336°
2026-05-09 11:35 37.82252 25.06884 32868 ft 423 kts 336°
2026-05-09 11:35 37.85049 25.05919 33215 ft 421 kts 336°
2026-05-09 11:35 37.87907 25.04937 33566 ft 420 kts 336°
2026-05-09 11:35 37.90723 25.03972 33920 ft 418 kts 336°
2026-05-09 11:36 37.93533 25.03009 34040 ft 416 kts 336°
2026-05-09 11:36 37.96280 25.02068 34053 ft 414 kts 336°
2026-05-09 11:36 38.01835 25.00151 34050 ft 413 kts 336°
2026-05-09 11:37 38.07384 24.98228 34055 ft 414 kts 336°
2026-05-09 11:37 38.12952 24.96311 34035 ft 414 kts 336°
2026-05-09 11:38 38.18518 24.94381 34040 ft 415 kts 336°
2026-05-09 11:38 38.24093 24.92436 34041 ft 416 kts 336°
2026-05-09 11:39 38.29644 24.90508 34041 ft 417 kts 336°
2026-05-09 11:40 38.38058 24.87590 34049 ft 418 kts 337°
2026-05-09 11:40 38.43678 24.85633 34048 ft 419 kts 337°
2026-05-09 11:41 38.49308 24.83659 34049 ft 420 kts 337°
2026-05-09 11:41 38.54948 24.81689 34051 ft 421 kts 337°
2026-05-09 11:42 38.60598 24.79711 34055 ft 421 kts 337°
2026-05-09 11:42 38.66222 24.77738 34057 ft 422 kts 338°
2026-05-09 11:43 38.71896 24.75745 34052 ft 423 kts 338°
2026-05-09 11:43 38.77618 24.73732 34056 ft 424 kts 338°
2026-05-09 11:44 38.83279 24.71735 34055 ft 424 kts 338°
2026-05-09 11:44 38.88975 24.69721 34057 ft 425 kts 338°
2026-05-09 11:45 38.94671 24.67708 34059 ft 425 kts 338°
2026-05-09 11:45 39.00377 24.65691 34064 ft 425 kts 338°
2026-05-09 11:46 39.06087 24.63669 34056 ft 426 kts 339°
2026-05-09 11:46 39.11774 24.61644 34057 ft 426 kts 339°
2026-05-09 11:47 39.17492 24.59598 34050 ft 427 kts 339°
2026-05-09 11:47 39.23224 24.57555 34053 ft 428 kts 339°
2026-05-09 11:48 39.28961 24.55506 34050 ft 428 kts 339°
2026-05-09 11:48 39.34706 24.53458 34051 ft 428 kts 339°
2026-05-09 11:49 39.40452 24.51394 34050 ft 429 kts 339°
2026-05-09 11:49 39.46205 24.49324 34057 ft 429 kts 339°
2026-05-09 11:50 39.51956 24.47257 34048 ft 429 kts 340°
2026-05-09 11:50 39.57710 24.45184 34060 ft 429 kts 340°
2026-05-09 11:51 39.63475 24.43109 34051 ft 430 kts 340°
2026-05-09 11:51 39.69232 24.41027 34062 ft 430 kts 340°
2026-05-09 11:52 39.75001 24.38931 34060 ft 430 kts 340°
2026-05-09 11:52 39.80769 24.36835 34066 ft 430 kts 340°
2026-05-09 11:53 39.86533 24.34740 34067 ft 430 kts 340°
2026-05-09 11:53 39.92298 24.32644 34065 ft 430 kts 340°
2026-05-09 11:54 39.98076 24.30538 34066 ft 431 kts 340°
2026-05-09 11:54 40.03816 24.28437 34067 ft 431 kts 341°
2026-05-09 11:55 40.09598 24.26322 34065 ft 432 kts 341°
2026-05-09 11:56 40.26969 24.19937 34058 ft 432 kts 341°
2026-05-09 11:57 40.32753 24.17809 34057 ft 432 kts 341°
2026-05-09 11:57 40.38546 24.15667 34059 ft 432 kts 341°
2026-05-09 11:58 40.44342 24.13522 34068 ft 432 kts 341°
2026-05-09 11:58 40.50128 24.11368 34065 ft 432 kts 341°
2026-05-09 11:59 40.55918 24.09222 34053 ft 432 kts 342°
2026-05-09 11:59 40.61713 24.07075 34051 ft 433 kts 342°
2026-05-09 12:00 40.67515 24.04916 34038 ft 433 kts 342°
2026-05-09 12:00 40.73314 24.02751 34044 ft 433 kts 342°
2026-05-09 12:01 40.79121 24.00572 34039 ft 434 kts 342°
2026-05-09 12:01 40.84900 23.98404 34037 ft 434 kts 342°
2026-05-09 12:02 40.90719 23.96218 34039 ft 435 kts 342°
2026-05-09 12:02 40.96538 23.94034 34038 ft 435 kts 342°
2026-05-09 12:03 41.02362 23.91839 34036 ft 435 kts 342°
2026-05-09 12:03 41.08182 23.89643 34045 ft 435 kts 342°
2026-05-09 12:04 41.14002 23.87436 34033 ft 435 kts 342°
2026-05-09 12:04 41.19822 23.85233 34038 ft 435 kts 342°
2026-05-09 12:05 41.25637 23.83025 34037 ft 435 kts 342°
2026-05-09 12:05 41.31459 23.80805 34037 ft 435 kts 342°
2026-05-09 12:06 41.37280 23.78581 34040 ft 435 kts 342°
2026-05-09 12:06 41.43196 23.76854 34040 ft 437 kts 349°
2026-05-09 12:07 41.49217 23.75622 34036 ft 437 kts 349°
2026-05-09 12:07 41.55235 23.74365 34038 ft 438 kts 349°
2026-05-09 12:08 41.60280 23.73309 34036 ft 438 kts 349°
2026-05-09 12:08 41.66268 23.72055 34041 ft 438 kts 349°
2026-05-09 12:09 41.72301 23.70797 34043 ft 439 kts 349°
2026-05-09 12:09 41.78329 23.69532 34045 ft 439 kts 349°
2026-05-09 12:10 41.90398 23.66983 34054 ft 439 kts 349°
2026-05-09 12:11 41.96427 23.65704 34057 ft 439 kts 349°
2026-05-09 12:11 42.02456 23.64434 34056 ft 439 kts 349°
2026-05-09 12:12 42.08485 23.63168 34058 ft 438 kts 348°
2026-05-09 12:12 42.14506 23.61892 34054 ft 437 kts 348°
2026-05-09 12:13 42.20519 23.60608 34060 ft 438 kts 348°
2026-05-09 12:13 42.26540 23.59324 34067 ft 438 kts 348°
2026-05-09 12:14 42.32563 23.58035 34066 ft 438 kts 348°
2026-05-09 12:14 42.38580 23.56755 34061 ft 438 kts 348°
2026-05-09 12:15 42.44563 23.55476 34060 ft 438 kts 348°
2026-05-09 12:15 42.50575 23.54181 34063 ft 438 kts 348°
2026-05-09 12:16 42.56592 23.52885 34068 ft 438 kts 348°
2026-05-09 12:16 42.62609 23.51588 34069 ft 438 kts 348°
2026-05-09 12:17 42.68632 23.50291 34074 ft 438 kts 348°
2026-05-09 12:17 42.74651 23.48995 34085 ft 438 kts 347°
2026-05-09 12:18 42.80670 23.47689 34078 ft 438 kts 347°
2026-05-09 12:18 42.86684 23.46380 34074 ft 437 kts 347°
2026-05-09 12:19 42.92686 23.45071 34073 ft 437 kts 347°
2026-05-09 12:19 42.98691 23.43756 34074 ft 437 kts 347°
2026-05-09 12:20 43.04691 23.42444 34074 ft 436 kts 347°
2026-05-09 12:20 43.10639 23.41143 34075 ft 435 kts 347°
2026-05-09 12:21 43.16645 23.39830 34077 ft 434 kts 347°
2026-05-09 12:21 43.22568 23.38526 34078 ft 433 kts 347°
2026-05-09 12:22 43.28511 23.37218 34075 ft 432 kts 347°
2026-05-09 12:22 43.34450 23.35906 34076 ft 432 kts 346°
2026-05-09 12:23 43.40381 23.34593 34074 ft 432 kts 346°
2026-05-09 12:23 43.46315 23.33280 34072 ft 431 kts 346°
2026-05-09 12:24 43.52240 23.31965 34069 ft 431 kts 346°
2026-05-09 12:24 43.58164 23.30644 34072 ft 431 kts 346°
2026-05-09 12:25 43.64082 23.29324 34073 ft 431 kts 346°
2026-05-09 12:25 43.70005 23.28002 34067 ft 431 kts 346°
2026-05-09 12:26 43.75924 23.26687 34066 ft 431 kts 346°
2026-05-09 12:26 43.81839 23.25365 34065 ft 431 kts 346°
2026-05-09 12:27 43.87725 23.23891 34061 ft 429 kts 344°
2026-05-09 12:27 43.93557 23.22131 34062 ft 429 kts 343°
2026-05-09 12:28 43.99392 23.20337 34063 ft 429 kts 344°
2026-05-09 12:28 44.05235 23.18614 34068 ft 430 kts 344°
2026-05-09 12:29 44.11056 23.16918 34068 ft 430 kts 344°
2026-05-09 12:29 44.16911 23.15203 34064 ft 430 kts 344°
2026-05-09 12:30 44.22768 23.13488 34066 ft 430 kts 345°
2026-05-09 12:30 44.31559 23.10892 34065 ft 430 kts 345°
2026-05-09 12:31 44.40336 23.08298 34067 ft 430 kts 345°
2026-05-09 12:32 44.46194 23.06565 34063 ft 430 kts 345°
2026-05-09 12:32 44.52045 23.04825 34051 ft 430 kts 345°
2026-05-09 12:33 44.57905 23.03082 34070 ft 430 kts 345°
2026-05-09 12:33 44.63765 23.01328 34059 ft 430 kts 345°
2026-05-09 12:34 44.69623 22.99568 34060 ft 430 kts 345°
2026-05-09 12:34 44.75476 22.97813 34064 ft 430 kts 345°
2026-05-09 12:35 44.81326 22.96061 34060 ft 430 kts 345°
2026-05-09 12:35 44.87175 22.94294 34058 ft 430 kts 345°
2026-05-09 12:36 44.93025 22.92528 34063 ft 430 kts 345°
2026-05-09 12:36 44.98874 22.90768 34051 ft 430 kts 345°
2026-05-09 12:37 45.04729 22.88990 34059 ft 430 kts 345°
2026-05-09 12:37 45.10583 22.87209 34061 ft 430 kts 346°
2026-05-09 12:38 45.16403 22.85439 34068 ft 430 kts 346°
2026-05-09 12:38 45.22261 22.83662 34073 ft 431 kts 346°
2026-05-09 12:39 45.28163 22.81862 34074 ft 431 kts 345°
2026-05-09 12:39 45.34024 22.80068 34082 ft 431 kts 346°
2026-05-09 12:40 45.39896 22.78271 34083 ft 432 kts 345°
2026-05-09 12:40 45.45729 22.76473 34095 ft 432 kts 345°
2026-05-09 12:41 45.51639 22.74648 34094 ft 432 kts 345°
2026-05-09 12:41 45.57515 22.72833 34098 ft 432 kts 345°
2026-05-09 12:42 45.63353 22.71032 34094 ft 432 kts 346°
2026-05-09 12:42 45.69234 22.69218 34094 ft 432 kts 345°
2026-05-09 12:43 45.75108 22.67386 34093 ft 432 kts 345°
2026-05-09 12:43 45.80983 22.65542 34097 ft 432 kts 345°
2026-05-09 12:44 45.86863 22.63745 34095 ft 432 kts 346°
2026-05-09 12:44 45.92782 22.62148 34096 ft 432 kts 347°
2026-05-09 12:45 45.98707 22.60611 34094 ft 432 kts 347°
2026-05-09 12:45 46.04622 22.59013 34095 ft 432 kts 346°
2026-05-09 12:46 46.10529 22.57383 34097 ft 433 kts 346°
2026-05-09 12:46 46.16446 22.55749 34091 ft 433 kts 346°
2026-05-09 12:47 46.22367 22.54123 34096 ft 433 kts 346°
2026-05-09 12:47 46.28296 22.52500 34092 ft 434 kts 346°
2026-05-09 12:48 46.34230 22.50865 34095 ft 434 kts 346°
2026-05-09 12:48 46.40163 22.49215 34097 ft 434 kts 346°
2026-05-09 12:49 46.46097 22.47558 34098 ft 434 kts 346°
2026-05-09 12:49 46.52030 22.45903 34100 ft 434 kts 346°
2026-05-09 12:50 46.57970 22.44238 34101 ft 435 kts 346°
2026-05-09 12:50 46.63910 22.42575 34096 ft 435 kts 346°
2026-05-09 12:51 46.69809 22.40926 34099 ft 435 kts 346°
2026-05-09 12:51 46.75758 22.39262 34084 ft 435 kts 346°
2026-05-09 12:52 46.81709 22.37583 34088 ft 435 kts 345°
2026-05-09 12:52 46.86660 22.36178 34090 ft 436 kts 345°
2026-05-09 12:53 46.92615 22.34496 34087 ft 436 kts 345°
2026-05-09 12:53 46.98572 22.32816 34081 ft 436 kts 345°
2026-05-09 12:54 47.04541 22.31129 34076 ft 437 kts 345°
2026-05-09 12:54 47.10505 22.29427 34081 ft 437 kts 345°
2026-05-09 12:55 47.16478 22.27719 34083 ft 437 kts 345°
2026-05-09 12:55 47.22461 22.26010 34087 ft 437 kts 345°
2026-05-09 12:56 47.28438 22.24305 34091 ft 438 kts 345°
2026-05-09 12:56 47.34420 22.22596 34089 ft 438 kts 345°
2026-05-09 12:57 47.40397 22.20872 34089 ft 438 kts 345°
2026-05-09 12:57 47.46342 22.19154 34087 ft 438 kts 345°
2026-05-09 12:58 47.52337 22.17420 34078 ft 439 kts 345°
2026-05-09 12:58 47.58338 22.15680 34076 ft 440 kts 345°
2026-05-09 12:59 47.64356 22.13926 34072 ft 441 kts 344°
2026-05-09 12:59 47.70381 22.12158 34068 ft 442 kts 345°
2026-05-09 13:00 47.76430 22.10398 34072 ft 443 kts 345°
2026-05-09 13:00 47.82496 22.08633 34070 ft 444 kts 345°
2026-05-09 13:01 47.88565 22.06853 34075 ft 445 kts 344°
2026-05-09 13:01 47.94650 22.05060 34078 ft 446 kts 345°
2026-05-09 13:02 48.00743 22.03273 34075 ft 447 kts 345°
2026-05-09 13:02 48.06860 22.01470 34068 ft 448 kts 344°
2026-05-09 13:03 48.12986 21.99644 34071 ft 449 kts 344°
2026-05-09 13:03 48.19130 21.97819 34079 ft 450 kts 344°
2026-05-09 13:04 48.25285 21.95993 34080 ft 452 kts 344°
2026-05-09 13:04 48.31418 21.94166 34065 ft 453 kts 344°
2026-05-09 13:05 48.37720 21.93193 34067 ft 461 kts 359°
2026-05-09 13:05 48.44170 21.94393 34068 ft 465 kts
2026-05-09 13:06 48.50547 21.95728 34070 ft 466 kts
2026-05-09 13:06 48.56984 21.97073 34075 ft 468 kts
2026-05-09 13:07 48.63435 21.98430 34082 ft 469 kts
2026-05-09 13:07 48.69915 21.99793 34085 ft 470 kts
2026-05-09 13:08 48.76395 22.01142 34088 ft 471 kts
2026-05-09 13:08 48.82891 22.02504 34085 ft 472 kts
2026-05-09 13:09 48.89405 22.03886 34096 ft 473 kts
2026-05-09 13:09 48.95937 22.05278 34101 ft 475 kts
2026-05-09 13:10 49.02450 22.06665 34105 ft 476 kts
2026-05-09 13:10 49.09014 22.08066 34109 ft 477 kts
2026-05-09 13:11 49.15591 22.09465 34111 ft 477 kts
2026-05-09 13:11 49.22189 22.10881 34120 ft 479 kts
2026-05-09 13:12 49.28794 22.12308 34330 ft 481 kts
2026-05-09 13:12 49.32111 22.13019 34641 ft 480 kts
2026-05-09 13:12 49.35417 22.13727 34967 ft 480 kts
2026-05-09 13:12 49.38727 22.14438 35111 ft 479 kts
2026-05-09 13:13 49.42027 22.15150 35137 ft 479 kts
2026-05-09 13:13 49.48615 22.16580 35135 ft 478 kts
2026-05-09 13:14 49.55212 22.18020 35135 ft 478 kts
2026-05-09 13:16 49.81559 22.23787 35159 ft 479 kts
2026-05-09 13:16 49.88163 22.25237 35171 ft 479 kts
2026-05-09 13:17 49.94812 22.26705 35171 ft 479 kts
2026-05-09 13:17 50.01370 22.28162 35177 ft 479 kts
2026-05-09 13:18 50.07971 22.29615 35182 ft 479 kts
2026-05-09 13:18 50.14576 22.31082 35184 ft 479 kts
2026-05-09 13:19 50.21181 22.32567 35186 ft 479 kts
2026-05-09 13:19 50.27783 22.34053 35186 ft 479 kts
2026-05-09 13:20 50.34378 22.35530 35182 ft 479 kts
2026-05-09 13:20 50.40971 22.37014 35180 ft 478 kts
2026-05-09 13:21 50.47560 22.38497 35181 ft 478 kts
2026-05-09 13:21 50.54135 22.39985 35181 ft 477 kts
2026-05-09 13:22 50.60708 22.41477 35178 ft 477 kts
2026-05-09 13:22 50.67270 22.42967 35180 ft 476 kts
2026-05-09 13:23 50.83644 22.46727 35182 ft 475 kts
2026-05-09 13:24 50.90186 22.48240 35181 ft 475 kts
2026-05-09 13:24 50.96671 22.49893 35180 ft 475 kts
2026-05-09 13:25 51.03183 22.51647 35185 ft 474 kts
2026-05-09 13:26 51.12944 22.54246 35190 ft 474 kts
2026-05-09 13:26 51.19444 22.55952 35189 ft 473 kts
2026-05-09 13:27 51.25941 22.57663 35188 ft 473 kts
2026-05-09 13:27 51.32438 22.59374 35188 ft 473 kts
2026-05-09 13:28 51.38920 22.61093 35185 ft 472 kts
2026-05-09 13:28 51.45408 22.62829 35179 ft 472 kts
2026-05-09 13:29 51.51895 22.64570 35176 ft 472 kts
2026-05-09 13:29 51.58377 22.66306 35173 ft 472 kts
2026-05-09 13:30 51.64822 22.68029 35174 ft 472 kts
2026-05-09 13:30 51.71311 22.69764 35176 ft 472 kts
2026-05-09 13:31 51.77793 22.71514 35176 ft 472 kts
2026-05-09 13:31 51.84276 22.73284 35171 ft 472 kts
2026-05-09 13:32 51.90753 22.75061 35174 ft 471 kts
2026-05-09 13:32 52.00407 22.77677 35173 ft 470 kts
2026-05-09 13:33 52.06860 22.79429 35174 ft 470 kts
2026-05-09 13:33 52.13307 22.81208 35172 ft 470 kts
2026-05-09 13:34 52.19748 22.82986 35176 ft 469 kts
2026-05-09 13:34 52.26184 22.84762 35175 ft 468 kts
2026-05-09 13:35 52.32611 22.86543 35173 ft 468 kts
2026-05-09 13:35 52.39021 22.88330 35171 ft 467 kts
2026-05-09 13:36 52.44350 22.89812 35166 ft 466 kts
2026-05-09 13:36 52.50738 22.91596 35161 ft 466 kts
2026-05-09 13:37 52.57126 22.93388 35157 ft 465 kts
2026-05-09 13:37 52.63510 22.95184 35163 ft 465 kts
2026-05-09 13:38 52.69893 22.96981 35157 ft 465 kts
2026-05-09 13:38 52.76266 22.98779 35162 ft 465 kts
2026-05-09 13:39 52.82643 23.00587 35160 ft 464 kts
2026-05-09 13:39 52.89016 23.02394 35156 ft 464 kts
2026-05-09 13:40 52.95345 23.04197 35156 ft 464 kts
2026-05-09 13:40 53.01713 23.06023 35159 ft 464 kts
2026-05-09 13:41 53.08082 23.07864 35156 ft 464 kts
2026-05-09 13:41 53.14448 23.09692 35154 ft 464 kts
2026-05-09 13:42 53.20806 23.11518 35151 ft 464 kts
2026-05-09 13:42 53.27164 23.13357 35155 ft 463 kts
2026-05-09 13:43 53.33520 23.15202 35158 ft 463 kts
2026-05-09 13:43 53.39874 23.17051 35160 ft 463 kts
2026-05-09 13:44 53.46215 23.18898 35153 ft 462 kts
2026-05-09 13:44 53.52551 23.20766 35155 ft 462 kts
2026-05-09 13:45 53.58876 23.22636 35158 ft 461 kts
2026-05-09 13:45 53.65197 23.24497 35155 ft 461 kts
2026-05-09 13:46 53.71472 23.26348 35153 ft 460 kts
2026-05-09 13:46 53.77783 23.28212 35149 ft 459 kts
2026-05-09 13:47 53.84076 23.30086 35152 ft 459 kts
2026-05-09 13:47 53.90364 23.31963 35148 ft 458 kts
2026-05-09 13:48 53.96643 23.33838 35153 ft 457 kts
2026-05-09 13:48 54.02906 23.35708 35148 ft 457 kts
2026-05-09 13:49 54.09167 23.37593 35152 ft 456 kts
2026-05-09 13:49 54.15413 23.39494 35152 ft 456 kts
2026-05-09 13:50 54.21611 23.41798 35151 ft 457 kts 14°
2026-05-09 13:50 54.27707 23.44880 35150 ft 457 kts 14°
2026-05-09 13:51 54.33800 23.47960 35154 ft 457 kts 14°
2026-05-09 13:51 54.39885 23.51055 35153 ft 456 kts 14°
2026-05-09 13:52 54.45968 23.54161 35152 ft 456 kts 14°
2026-05-09 13:52 54.52049 23.57271 35156 ft 456 kts 14°
2026-05-09 13:53 54.58119 23.60394 35155 ft 455 kts 15°
2026-05-09 13:53 54.64193 23.63518 35156 ft 455 kts 15°
2026-05-09 13:54 54.70258 23.66640 35159 ft 455 kts 15°
2026-05-09 13:54 54.76322 23.69770 35165 ft 455 kts 15°
2026-05-09 13:55 54.82385 23.72911 35173 ft 455 kts 15°
2026-05-09 13:55 54.88450 23.76076 35181 ft 454 kts 15°
2026-05-09 13:56 54.94506 23.79239 35181 ft 454 kts 15°
2026-05-09 13:56 55.00563 23.82413 35186 ft 454 kts 15°
2026-05-09 13:57 55.06606 23.85604 35185 ft 454 kts 15°
2026-05-09 13:57 55.12647 23.88796 35182 ft 453 kts 15°
2026-05-09 13:58 55.18649 23.91972 35183 ft 453 kts 15°
2026-05-09 13:58 55.24692 23.95167 35184 ft 453 kts 15°
2026-05-09 13:59 55.30730 23.98372 35179 ft 453 kts 15°
2026-05-09 13:59 55.36764 24.01597 35180 ft 453 kts 15°
2026-05-09 14:00 55.40755 24.03745 35179 ft 453 kts 15°
2026-05-09 14:00 55.48785 24.08075 35184 ft 453 kts 15°
2026-05-09 14:01 55.54819 24.11326 35181 ft 453 kts 15°
2026-05-09 14:01 55.60854 24.14581 35185 ft 454 kts 15°
2026-05-09 14:02 55.66894 24.17855 35179 ft 454 kts 15°
2026-05-09 14:02 55.72942 24.21145 35187 ft 454 kts 15°
2026-05-09 14:03 55.78979 24.24440 35190 ft 454 kts 16°
2026-05-09 14:03 55.84988 24.27730 35200 ft 454 kts 16°
2026-05-09 14:04 55.91022 24.31055 35200 ft 453 kts 17°
2026-05-09 14:04 55.97048 24.34392 35206 ft 453 kts 17°
2026-05-09 14:05 56.03064 24.37732 35201 ft 452 kts 17°
2026-05-09 14:05 56.09069 24.41069 35206 ft 452 kts 17°
2026-05-09 14:06 56.15071 24.44408 35208 ft 452 kts 17°
2026-05-09 14:06 56.21069 24.47760 35209 ft 451 kts 17°
2026-05-09 14:07 56.27057 24.51106 35211 ft 450 kts 15°
2026-05-09 14:07 56.33188 24.53010 35209 ft 450 kts
2026-05-09 14:08 56.39389 24.54595 35214 ft 450 kts
2026-05-09 14:08 56.45580 24.56201 35221 ft 449 kts
2026-05-09 14:09 56.51764 24.57803 35227 ft 449 kts
2026-05-09 14:09 56.57942 24.59422 35230 ft 448 kts
2026-05-09 14:10 56.67187 24.61846 35241 ft 447 kts
2026-05-09 14:11 56.73332 24.63469 35241 ft 446 kts
2026-05-09 14:11 56.79472 24.65095 35245 ft 445 kts
2026-05-09 14:12 56.85599 24.66727 35244 ft 444 kts
2026-05-09 14:12 56.91712 24.68355 35241 ft 444 kts
2026-05-09 14:13 56.97815 24.69987 35236 ft 443 kts
2026-05-09 14:15 57.22144 24.76527 35246 ft 441 kts
2026-05-09 14:15 57.28225 24.78175 35248 ft 441 kts
2026-05-09 14:16 57.34303 24.79842 35250 ft 442 kts
2026-05-09 14:16 57.40382 24.81508 35250 ft 442 kts
2026-05-09 14:17 57.46475 24.83170 35252 ft 442 kts
2026-05-09 14:17 57.52554 24.84844 35253 ft 442 kts
2026-05-09 14:18 57.58637 24.86527 35255 ft 442 kts
2026-05-09 14:18 57.64729 24.88220 35243 ft 443 kts 10°
2026-05-09 14:19 57.70605 24.91393 35231 ft 443 kts 19°
2026-05-09 14:19 57.76463 24.95098 35227 ft 445 kts 19°
2026-05-09 14:20 57.82333 24.98831 35237 ft 446 kts 19°
2026-05-09 14:20 57.87265 25.01979 35239 ft 447 kts 20°
2026-05-09 14:21 57.96064 25.07611 35247 ft 448 kts 19°
2026-05-09 14:21 58.01973 25.11412 35253 ft 448 kts 19°
2026-05-09 14:22 58.07878 25.15222 35249 ft 449 kts 19°
2026-05-09 14:22 58.13796 25.19053 35259 ft 449 kts 19°
2026-05-09 14:23 58.19717 25.22901 35254 ft 450 kts 19°
2026-05-09 14:23 58.25645 25.26766 35263 ft 451 kts 19°
2026-05-09 14:24 58.31580 25.30650 35269 ft 452 kts 19°
2026-05-09 14:24 58.37526 25.34558 35269 ft 452 kts 19°
2026-05-09 14:25 58.43487 25.38486 35269 ft 453 kts 19°
2026-05-09 14:25 58.49455 25.42433 35275 ft 454 kts 19°
2026-05-09 14:26 58.55425 25.46397 35275 ft 455 kts 19°
2026-05-09 14:26 58.61411 25.50387 35240 ft 454 kts 19°
2026-05-09 14:27 58.64348 25.52349 34817 ft 453 kts 19°
2026-05-09 14:27 58.67319 25.54338 34345 ft 451 kts 20°
2026-05-09 14:27 58.70277 25.56322 33795 ft 450 kts 20°
2026-05-09 14:27 58.73239 25.58308 33250 ft 451 kts 20°
2026-05-09 14:28 58.76203 25.60298 32706 ft 451 kts 19°
2026-05-09 14:28 58.79162 25.62290 32181 ft 449 kts 19°
2026-05-09 14:28 58.82099 25.64273 31669 ft 447 kts 20°
2026-05-09 14:28 58.85024 25.66251 31165 ft 444 kts 20°
2026-05-09 14:29 58.87934 25.68222 30678 ft 442 kts 19°
2026-05-09 14:29 58.90826 25.70184 30168 ft 439 kts 19°
2026-05-09 14:29 58.93782 25.71543 29609 ft 435 kts
2026-05-09 14:29 58.96793 25.71677 29076 ft 432 kts 359°
2026-05-09 14:30 58.99792 25.71634 28551 ft 429 kts 358°
2026-05-09 14:30 59.02766 25.71580 28040 ft 426 kts 359°
2026-05-09 14:30 59.05721 25.71526 27540 ft 423 kts 359°
2026-05-09 14:30 59.08651 25.71472 27060 ft 420 kts 359°
2026-05-09 14:31 59.11569 25.71419 26580 ft 417 kts 359°
2026-05-09 14:31 59.14458 25.71372 26118 ft 415 kts 359°
2026-05-09 14:31 59.17339 25.71324 25665 ft 412 kts 359°
2026-05-09 14:31 59.20197 25.71276 25229 ft 410 kts 358°
2026-05-09 14:32 59.23039 25.71230 24788 ft 408 kts 359°
2026-05-09 14:32 59.25866 25.71186 24425 ft 404 kts 359°
2026-05-09 14:32 59.28662 25.71141 24030 ft 401 kts 358°
2026-05-09 14:32 59.31444 25.71100 23597 ft 398 kts 359°
2026-05-09 14:33 59.34203 25.71059 23153 ft 395 kts 359°
2026-05-09 14:33 59.36943 25.71016 22689 ft 392 kts 359°
2026-05-09 14:33 59.39665 25.70975 22225 ft 389 kts 360°
2026-05-09 14:33 59.42361 25.70799 21779 ft 386 kts 352°
2026-05-09 14:34 59.44907 25.69252 21331 ft 382 kts 333°
2026-05-09 14:34 59.47226 25.66727 20842 ft 380 kts 330°
2026-05-09 14:34 59.49481 25.64141 20354 ft 379 kts 330°
2026-05-09 14:34 59.51749 25.61524 19904 ft 376 kts 330°
2026-05-09 14:35 59.54006 25.58916 19458 ft 374 kts 330°
2026-05-09 14:35 59.56238 25.56333 19018 ft 371 kts 330°
2026-05-09 14:35 59.58458 25.53760 18577 ft 368 kts 330°
2026-05-09 14:35 59.60661 25.51205 18072 ft 366 kts 330°
2026-05-09 14:36 59.62815 25.48566 17584 ft 363 kts 322°
2026-05-09 14:36 59.64526 25.44954 17098 ft 360 kts 306°
2026-05-09 14:36 59.65967 25.40937 16590 ft 357 kts 304°
2026-05-09 14:36 59.67377 25.36907 16123 ft 355 kts 304°
2026-05-09 14:37 59.68772 25.32908 15661 ft 352 kts 304°
2026-05-09 14:37 59.70154 25.28942 15218 ft 348 kts 304°
2026-05-09 14:37 59.71522 25.25017 14788 ft 345 kts 304°
2026-05-09 14:37 59.73015 25.21311 14324 ft 343 kts 318°
2026-05-09 14:38 59.75007 25.18786 13895 ft 340 kts 339°
2026-05-09 14:38 59.77289 25.17761 13625 ft 338 kts 358°
2026-05-09 14:38 59.79626 25.18047 13360 ft 337 kts
2026-05-09 14:38 59.81956 25.18520 13087 ft 336 kts
2026-05-09 14:39 59.84240 25.19063 12823 ft 334 kts
2026-05-09 14:39 59.86530 25.19779 12569 ft 332 kts 11°
2026-05-09 14:39 59.88802 25.20578 12305 ft 331 kts 11°
2026-05-09 14:39 59.91058 25.21404 12048 ft 329 kts 11°
2026-05-09 14:40 59.93308 25.22229 11790 ft 328 kts 12°
2026-05-09 14:40 59.95547 25.23036 11538 ft 327 kts 11°
2026-05-09 14:40 59.97786 25.23823 11280 ft 325 kts 11°
2026-05-09 14:40 60.00010 25.24588 11026 ft 323 kts 11°
2026-05-09 14:41 60.02221 25.25345 10784 ft 322 kts 11°
2026-05-09 14:41 60.04423 25.26098 10541 ft 321 kts 11°
2026-05-09 14:41 60.06616 25.26842 10299 ft 318 kts 11°
2026-05-09 14:41 60.08758 25.27571 10154 ft 306 kts 11°
2026-05-09 14:42 60.10815 25.28278 10010 ft 295 kts 12°
2026-05-09 14:42 60.12819 25.28972 9876 ft 290 kts 11°
2026-05-09 14:42 60.14801 25.29660 9751 ft 290 kts 12°
2026-05-09 14:42 60.16793 25.30352 9435 ft 290 kts 11°
2026-05-09 14:43 60.18780 25.31041 9065 ft 289 kts 12°
2026-05-09 14:43 60.20750 25.31729 8800 ft 285 kts 12°
2026-05-09 14:43 60.22705 25.32410 8466 ft 286 kts 12°
2026-05-09 14:43 60.24675 25.33097 8078 ft 287 kts 12°
2026-05-09 14:44 60.26642 25.33780 7656 ft 288 kts 12°
2026-05-09 14:44 60.28600 25.34460 7171 ft 285 kts 12°
2026-05-09 14:44 60.30549 25.35140 6689 ft 283 kts 12°
2026-05-09 14:44 60.32456 25.35806 6259 ft 272 kts 13°
2026-05-09 14:45 60.34250 25.36431 5937 ft 256 kts 13°
2026-05-09 14:45 60.35961 25.37027 5615 ft 242 kts 13°
2026-05-09 14:45 60.37605 25.37371 5322 ft 238 kts 358°
2026-05-09 14:45 60.39183 25.36397 5124 ft 240 kts 331°
2026-05-09 14:46 60.40586 25.34570 4917 ft 240 kts 329°
2026-05-09 14:46 60.41986 25.32753 4680 ft 238 kts 330°
2026-05-09 14:46 60.43355 25.30942 4416 ft 231 kts 325°
2026-05-09 14:46 60.44349 25.28444 4124 ft 230 kts 294°
2026-05-09 14:47 60.44600 25.25272 3785 ft 231 kts 262°
2026-05-09 14:47 60.44033 25.22291 3407 ft 226 kts 228°
2026-05-09 14:47 60.42999 25.19961 3166 ft 221 kts 224°
2026-05-09 14:47 60.41977 25.17676 2878 ft 214 kts 224°
2026-05-09 14:48 60.40994 25.15479 2566 ft 208 kts 224°
2026-05-09 14:48 60.40040 25.13355 2277 ft 200 kts 223°
2026-05-09 14:48 60.39132 25.11336 2005 ft 186 kts 224°
2026-05-09 14:48 60.38290 25.09466 1744 ft 174 kts 223°
2026-05-09 14:49 60.37495 25.07703 1516 ft 167 kts 222°
2026-05-09 14:49 60.36749 25.06050 1341 ft 156 kts 223°
2026-05-09 14:49 60.36035 25.04469 1087 ft 151 kts 221°
2026-05-09 14:49 60.35328 25.02907 866 ft 150 kts 222°
2026-05-09 14:50 60.34629 25.01362 667 ft 149 kts 221°
2026-05-09 14:50 60.33936 24.99831 472 ft 147 kts 223°
2026-05-09 14:50 60.33249 24.98298 265 ft 146 kts 222°
2026-05-09 14:50 60.32593 24.96859 176 ft 124 kts 225°
2026-05-09 14:51 60.32097 24.95767 175 ft 89 kts 227°
2026-05-09 14:51 60.31867 24.95324 174 ft 25 kts 212°
2026-05-09 14:51 60.31722 24.95216 172 ft 12 kts 198°
2026-05-09 14:51 60.31650 24.95196 171 ft 7 kts 161°
2026-05-09 14:52 60.31632 24.95294 170 ft 9 kts 77°
2026-05-09 14:52 60.31676 24.95403 170 ft 11 kts 45°
2026-05-09 14:52 60.31731 24.95521 171 ft 12 kts 48°
2026-05-09 14:52 60.31795 24.95663 170 ft 15 kts 48°
2026-05-09 14:53 60.31871 24.95831 169 ft 17 kts 47°
2026-05-09 14:53 60.31931 24.95986 169 ft 12 kts 80°
2026-05-09 14:53 60.31879 24.96118 167 ft 14 kts 137°
2026-05-09 14:53 60.31852 24.96275 167 ft 12 kts 82°
2026-05-09 14:54 60.31900 24.96423 167 ft 7 kts 47°
2026-05-09 14:54 60.31901 24.96491 167 ft 6 kts 124°
2026-05-09 14:54 60.31877 24.96536 167 ft 2 kts 139°
2026-05-09 14:54 60.31874 24.96541 167 ft 0 kts 138°